DW2822 Weather Reports


time (UTC)temp
C
wind
direction
speed
KPH
gust
KPH
rain 1hr
cm
rain 24hr
cm
rain mn
cm
humidity
%
barometer
mb
20260510190043 10 56 6.4 16.1 0.00 0.00 0.00 61 1014.5
20260510184531 10 39 8.0 17.7 0.00 0.00 0.00 61 1014.6
20260510183036 10 34 6.4 16.1 0.00 0.00 0.00 60 1014.6
20260510181537 10 49 9.7 22.5 0.00 0.00 0.00 60 1014.6
20260510180107 10 5 6.4 20.9 0.00 0.00 0.00 61 1014.5
20260510174623 11 27 8.0 17.7 0.00 0.00 0.00 61 1014.6
20260510173050 11 65 9.7 27.4 0.00 0.00 0.00 60 1014.7
20260510171558 11 359 9.7 17.7 0.00 0.00 0.00 61 1014.8
20260510170028 11 16 12.9 20.9 0.00 0.00 0.00 61 1014.9
20260510164521 11 31 12.9 25.7 0.00 0.00 0.00 62 1015.1
20260510163111 11 344 16.1 24.1 0.00 0.00 0.00 63 1015.2
20260510161501 11 65 14.5 25.7 0.00 0.00 0.00 63 1015.3
20260510160044 11 46 14.5 27.4 0.00 0.00 0.00 63 1015.5
20260510154544 11 1 8.0 19.3 0.00 0.00 0.00 65 1015.5
20260510153040 11 18 14.5 29.0 0.00 0.00 0.00 65 1015.7
20260510151537 11 26 8.0 24.1 0.00 0.00 0.00 66 1015.9
20260510150006 11 58 12.9 22.5 0.00 0.00 0.00 68 1016.1
20260510144511 10 359 11.3 24.1 0.00 0.00 0.00 68 1016.3
20260510143013 10 39 20.9 30.6 0.00 0.00 0.00 68 1016.4
20260510141520 10 59 16.1 27.4 0.00 0.00 0.00 70 1016.6
20260510140050 10 50 9.7 19.3 0.00 0.00 0.00 72 1016.7
20260510134551 10 5 12.9 27.4 0.00 0.00 0.00 71 1016.8
20260510133042 10 32 9.7 22.5 0.00 0.00 0.00 73 1016.8
20260510131552 10 22 11.3 22.5 0.00 0.00 0.00 74 1017.0
20260510130031 9 21 11.3 22.5 0.00 0.00 0.00 75 1017.0
20260510124529 9 72 11.3 22.5 0.00 0.00 0.00 75 1017.1
20260510123021 9 46 11.3 29.0 0.00 0.00 0.00 76 1017.3
20260510121520 9 56 12.9 24.1 0.00 0.00 0.00 76 1017.3
20260510120046 8 34 17.7 29.0 0.00 0.00 0.00 77 1017.6
20260510114551 8 20 12.9 24.1 0.00 0.00 0.00 78 1017.8
20260510113044 8 359 12.9 24.1 0.00 0.00 0.00 78 1017.8
20260510111540 8 359 14.5 32.2 0.00 0.00 0.00 78 1018.0
20260510110019 8 20 16.1 22.5 0.00 0.00 0.00 79 1018.0
20260510104513 8 69 14.5 27.4 0.00 0.00 0.00 79 1018.2
20260510103016 8 66 17.7 27.4 0.00 0.00 0.00 79 1018.3
20260510101524 8 48 14.5 32.2 0.00 0.00 0.00 79 1018.3
20260510100109 8 42 14.5 30.6 0.00 0.00 0.00 80 1018.4
20260510094555 8 25 16.1 24.1 0.00 0.00 0.00 80 1018.4
20260510093048 8 325 14.5 30.6 0.00 0.00 0.00 81 1018.5
20260510091547 7 11 16.1 24.1 0.00 0.00 0.00 81 1018.5
20260510090016 7 22 11.3 27.4 0.00 0.00 0.00 81 1018.5
20260510084522 7 355 16.1 32.2 0.00 0.00 0.00 81 1018.6
20260510083017 7 38 16.1 24.1 0.00 0.00 0.00 81 1018.6
20260510081507 7 6 14.5 27.4 0.00 0.00 0.00 81 1018.7
20260510080055 7 28 14.5 29.0 0.00 0.00 0.00 81 1018.7
20260510074540 7 1 14.5 22.5 0.00 0.00 0.00 81 1018.7
20260510073041 7 25 9.7 29.0 0.00 0.00 0.00 81 1018.5
20260510071546 7 35 14.5 27.4 0.00 0.00 0.00 81 1018.5
20260510070035 8 24 11.3 25.7 0.00 0.00 0.00 81 1018.5
20260510064520 8 26 14.5 24.1 0.00 0.00 0.00 81 1018.4
20260510063018 8 13 11.3 25.7 0.00 0.00 0.00 81 1018.3
20260510061520 8 38 14.5 24.1 0.00 0.00 0.00 81 1018.3
20260510060053 8 30 16.1 30.6 0.00 0.00 0.00 81 1018.2
20260510054552 8 52 12.9 24.1 0.00 0.00 0.00 80 1018.1
20260510053052 8 1 12.9 29.0 0.00 0.00 0.00 80 1018.1
20260510051544 8 360 12.9 30.6 0.00 0.00 0.00 80 1018.2
20260510050018 8 11 11.3 33.8 0.00 0.00 0.00 80 1018.3
20260510044512 8 359 11.3 24.1 0.00 0.00 0.00 80 1018.2
20260510043008 8 351 14.5 25.7 0.00 0.00 0.00 80 1018.3
20260510041505 8 3 14.5 27.4 0.00 0.00 0.00 80 1018.5
20260510040045 8 1 14.5 24.1 0.00 0.00 0.00 80 1018.6
20260510034544 8 360 14.5 24.1 0.00 0.00 0.00 80 1018.5
20260510033044 8 33 17.7 29.0 0.00 0.00 0.00 80 1018.6
20260510031531 8 32 14.5 27.4 0.00 0.00 0.00 79 1018.6
20260510024600 8 14 11.3 27.4 0.00 0.00 0.00 79 1018.7
20260510023054 8 3 8.0 25.7 0.00 0.00 0.00 79 1018.7
20260510021651 8 36 12.9 30.6 0.00 0.00 0.00 79 1018.7
20260510020036 8 26 17.7 30.6 0.00 0.00 0.00 79 1018.6
20260510014545 9 22 16.1 27.4 0.00 0.00 0.00 79 1018.6
20260510013025 9 45 17.7 30.6 0.00 0.00 0.00 78 1018.8
20260510011518 9 29 19.3 35.4 0.00 0.00 0.00 77 1018.9
20260510010055 10 18 16.1 25.7 0.00 0.00 0.00 76 1019.0
20260510004547 10 349 12.9 24.1 0.00 0.00 0.00 75 1018.9
20260510003028 10 24 11.3 24.1 0.00 0.00 0.00 75 1018.9
20260510001534 10 28 14.5 33.8 0.00 0.00 0.00 74 1018.8
20260510000059 10 20 16.1 30.6 0.00 0.00 0.00 74 1018.7
20260509234501 10 356 16.1 30.6 0.00 0.00 0.00 74 1018.8
20260509233053 11 6 20.9 32.2 0.00 0.00 0.00 74 1018.5
20260509231601 11 359 17.7 32.2 0.00 0.00 0.00 73 1018.6
20260509230029 11 28 14.5 29.0 0.00 0.00 0.00 72 1018.6
20260509224521 11 13 16.1 30.6 0.00 0.00 0.00 72 1018.4
20260509223014 12 9 14.5 27.4 0.00 0.00 0.00 71 1018.4
20260509221516 12 324 12.9 29.0 0.00 0.00 0.00 70 1018.3
20260509220055 12 1 16.1 27.4 0.00 0.00 0.00 70 1018.3
20260509214556 13 11 14.5 25.7 0.00 0.00 0.00 69 1018.2
20260509213103 13 359 14.5 25.7 0.00 0.00 0.00 69 1018.1
20260509211552 13 7 12.9 27.4 0.00 0.00 0.00 68 1017.9
20260509210015 14 359 12.9 29.0 0.00 0.00 0.00 67 1017.7
20260509204505 14 3 12.9 33.8 0.00 0.00 0.00 67 1017.7
20260509203101 15 30 16.1 27.4 0.00 0.00 0.00 66 1017.6
20260509201606 15 344 12.9 24.1 0.00 0.00 0.00 65 1017.6
20260509200027 16 297 9.7 20.9 0.00 0.00 0.00 63 1017.3
20260509194537 16 309 9.7 30.6 0.00 0.03 0.00 63 1017.2
20260509193022 16 313 11.3 24.1 0.00 0.03 0.00 62 1016.9
20260509191522 16 358 11.3 22.5 0.00 0.03 0.00 61 1016.9